�������l�o���
Date,Time,MP-1(��Sv/h),MP-2(��Sv/h),MP-3(��Sv/h),MP-4(��Sv/h),MP-5(��Sv/h),MP-6(��Sv/h),MP-7(��Sv/h),MP-8(��Sv/h),����,����(m/s),���J
2024/01/13,00:00,0.519,0.782,0.489,0.988,0.703,0.315,0.563,0.527,��,2.0,��
2024/01/13,00:10,0.516,0.782,0.489,0.987,0.703,0.316,0.563,0.527,��,3.0,��
2024/01/13,00:20,0.517,0.781,0.490,0.988,0.703,0.316,0.563,0.527,��,2.3,�L
2024/01/13,00:30,0.514,0.782,0.490,0.987,0.703,0.315,0.562,0.528,���k��,3.3,�L
2024/01/13,00:40,0.516,0.782,0.489,0.988,0.702,0.316,0.563,0.528,��,2.2,��
2024/01/13,00:50,0.517,0.780,0.488,0.988,0.702,0.317,0.563,0.527,���쐼,2.8,��
2024/01/13,01:00,0.516,0.780,0.489,0.989,0.703,0.316,0.565,0.526,��,2.0,��
2024/01/13,01:10,0.517,0.782,0.489,0.988,0.705,0.316,0.562,0.527,��,1.5,��
2024/01/13,01:20,0.517,0.782,0.490,0.988,0.703,0.316,0.562,0.527,�k��,2.0,��
2024/01/13,01:30,0.516,0.781,0.488,0.986,0.703,0.316,0.563,0.527,��,2.6,��
2024/01/13,01:40,0.516,0.783,0.491,0.987,0.703,0.315,0.564,0.527,�k��,1.9,��
2024/01/13,01:50,0.517,0.781,0.490,0.989,0.702,0.316,0.563,0.528,�k��,2.0,��
2024/01/13,02:00,0.516,0.781,0.488,0.986,0.702,0.315,0.564,0.527,���k��,3.0,��
2024/01/13,02:10,0.515,0.782,0.489,0.989,0.704,0.315,0.563,0.527,���k��,2.9,��
2024/01/13,02:20,0.517,0.780,0.488,0.988,0.704,0.315,0.563,0.527,�k�k��,2.5,��
2024/01/13,02:30,0.516,0.779,0.488,0.989,0.703,0.315,0.564,0.527,�k�k��,3.4,��
2024/01/13,02:40,0.516,0.781,0.489,0.988,0.703,0.316,0.564,0.528,�k�k��,2.9,��
2024/01/13,02:50,0.515,0.781,0.488,0.988,0.702,0.315,0.562,0.526,�k�k��,3.1,��
2024/01/13,03:00,0.516,0.780,0.487,0.987,0.704,0.315,0.564,0.528,�k�k��,2.8,��
2024/01/13,03:10,0.516,0.781,0.489,0.987,0.702,0.317,0.563,0.528,�k��,2.5,��
2024/01/13,03:20,0.514,0.780,0.488,0.988,0.703,0.315,0.563,0.525,�k�k��,2.3,��
2024/01/13,03:30,0.515,0.780,0.489,0.988,0.702,0.316,0.563,0.527,�k�k��,2.6,��
2024/01/13,03:40,0.516,0.780,0.488,0.988,0.704,0.316,0.561,0.527,�k�k��,3.6,��
2024/01/13,03:50,0.514,0.779,0.489,0.987,0.703,0.315,0.562,0.528,�k,3.0,��
2024/01/13,04:00,0.516,0.780,0.490,0.989,0.701,0.316,0.564,0.527,�k�k��,2.9,��
2024/01/13,04:10,0.516,0.780,0.487,0.987,0.702,0.315,0.564,0.527,�k�k��,2.9,��
2024/01/13,04:20,0.516,0.780,0.489,0.990,0.701,0.315,0.563,0.527,�k�k��,4.5,��
2024/01/13,04:30,0.514,0.781,0.488,0.990,0.701,0.315,0.561,0.527,�k,3.9,��
2024/01/13,04:40,0.515,0.779,0.489,0.988,0.702,0.315,0.564,0.527,�k,2.8,��
2024/01/13,04:50,0.514,0.780,0.489,0.990,0.703,0.315,0.563,0.526,�k�k��,3.9,��
2024/01/13,05:00,0.515,0.781,0.489,0.986,0.703,0.315,0.563,0.527,�k�k��,4.0,��
2024/01/13,05:10,0.515,0.781,0.489,0.987,0.701,0.315,0.563,0.526,�k�k��,4.9,��
2024/01/13,05:20,0.515,0.777,0.489,0.985,0.702,0.316,0.562,0.526,�k�k��,4.5,��
2024/01/13,05:30,0.514,0.781,0.488,0.987,0.701,0.314,0.564,0.526,�k��,2.6,��
2024/01/13,05:40,0.514,0.780,0.487,0.987,0.700,0.315,0.564,0.527,�k�k��,3.2,��
2024/01/13,05:50,0.516,0.778,0.489,0.987,0.701,0.316,0.562,0.527,�k�k��,3.9,��
2024/01/13,06:00,0.516,0.780,0.490,0.990,0.702,0.316,0.563,0.527,�k�k��,4.8,��
2024/01/13,06:10,0.513,0.780,0.487,0.987,0.702,0.315,0.563,0.527,�k��,6.0,��
2024/01/13,06:20,0.517,0.779,0.490,0.987,0.703,0.316,0.563,0.528,�k�k��,5.8,��
2024/01/13,06:30,0.514,0.779,0.489,0.989,0.700,0.315,0.562,0.527,�k�k��,5.6,��
2024/01/13,06:40,0.513,0.780,0.487,0.986,0.702,0.316,0.564,0.527,�k�k��,5.7,��
2024/01/13,06:50,0.515,0.780,0.489,0.989,0.701,0.315,0.564,0.528,�k�k��,7.0,��
2024/01/13,07:00,0.513,0.781,0.487,0.988,0.701,0.313,0.562,0.527,�k�k��,7.5,��
2024/01/13,07:10,0.514,0.781,0.488,0.989,0.702,0.312,0.563,0.527,�k��,7.3,��
2024/01/13,07:20,0.515,0.781,0.488,0.987,0.700,0.313,0.564,0.527,�k��,6.7,��
2024/01/13,07:30,0.514,0.780,0.488,0.988,0.701,0.314,0.563,0.528,�k��,5.7,��
2024/01/13,07:40,0.515,0.781,0.488,0.985,0.701,0.315,0.563,0.527,�k��,6.6,��
2024/01/13,07:50,0.514,0.781,0.487,0.988,0.699,0.315,0.564,0.527,�k��,6.6,��
2024/01/13,08:00,0.514,0.782,0.488,0.987,0.701,0.315,0.564,0.527,�k�k��,6.4,��
2024/01/13,08:10,0.516,0.781,0.488,0.988,0.703,0.313,0.564,0.526,�k�k��,5.8,��
2024/01/13,08:20,0.515,0.781,0.489,0.987,0.701,0.314,0.565,0.528,�k�k��,4.8,��
2024/01/13,08:30,0.514,0.780,0.488,0.990,0.702,0.316,0.564,0.527,�k�k��,5.2,��
2024/01/13,08:40,0.514,0.781,0.488,0.987,0.704,0.315,0.564,0.528,�k�k��,3.2,��
2024/01/13,08:50,0.515,0.780,0.487,0.989,0.703,0.316,0.564,0.528,�k�k��,4.3,��
2024/01/13,09:00,0.516,0.781,0.489,0.989,0.702,0.315,0.565,0.528,�k�k��,3.7,��
2024/01/13,09:10,0.516,0.782,0.487,0.989,0.702,0.316,0.565,0.527,�k�k��,4.1,��
2024/01/13,09:20,0.516,0.780,0.489,0.990,0.703,0.316,0.565,0.527,�k,3.2,��
2024/01/13,09:30,0.515,0.783,0.489,0.986,0.701,0.314,0.566,0.528,�k�k��,3.2,��
2024/01/13,09:40,0.516,0.783,0.489,0.989,0.703,0.316,0.565,0.528,�k,3.7,��
2024/01/13,09:50,0.517,0.782,0.489,0.987,0.701,0.315,0.564,0.528,�k�k��,3.0,��
2024/01/13,10:00,0.517,0.784,0.489,0.988,0.703,0.316,0.561,0.527,�k�k��,4.3,��
2024/01/13,10:10,0.517,0.782,0.488,0.990,0.702,0.314,0.563,0.527,�k�k��,3.9,��
2024/01/13,10:20,0.515,0.783,0.489,0.990,0.704,0.316,0.563,0.527,�k�k��,5.0,��
2024/01/13,10:30,0.516,0.782,0.489,0.991,0.704,0.317,0.564,0.528,�k��,4.5,��
2024/01/13,10:40,0.518,0.782,0.489,0.988,0.702,0.316,0.563,0.528,�k��,6.4,��
2024/01/13,10:50,0.515,0.782,0.489,0.990,0.702,0.314,0.564,0.528,�k��,5.3,��
2024/01/13,11:00,0.516,0.779,0.487,0.990,0.704,0.317,0.564,0.529,���k��,6.9,��
2024/01/13,11:10,0.515,0.781,0.491,0.988,0.703,0.316,0.563,0.528,�k��,7.2,��
2024/01/13,11:20,0.515,0.780,0.489,0.990,0.704,0.316,0.563,0.529,���k��,11.1,��
2024/01/13,11:30,0.516,0.783,0.488,0.989,0.706,0.317,0.563,0.527,���k��,7.7,��
2024/01/13,11:40,0.516,0.782,0.488,0.989,0.705,0.317,0.564,0.527,���k��,6.0,��
2024/01/13,11:50,0.516,0.780,0.490,0.989,0.704,0.318,0.564,0.529,�k��,8.2,��
2024/01/13,12:00,0.516,0.782,0.490,0.990,0.705,0.316,0.564,0.529,���k��,5.0,��
2024/01/13,12:10,0.516,0.780,0.491,0.990,0.707,0.315,0.565,0.528,�k��,8.9,��
2024/01/13,12:20,0.516,0.781,0.490,0.993,0.707,0.315,0.564,0.529,�k��,8.7,��
2024/01/13,12:30,0.518,0.781,0.491,0.990,0.705,0.314,0.565,0.529,�k��,7.9,��
2024/01/13,12:40,0.517,0.781,0.489,0.989,0.707,0.316,0.564,0.529,�k�k��,6.3,��
2024/01/13,12:50,0.520,0.782,0.490,0.990,0.705,0.317,0.565,0.528,�k�k��,6.6,��
2024/01/13,13:00,0.515,0.781,0.490,0.989,0.707,0.316,0.565,0.529,�k�k��,6.9,��
2024/01/13,13:10,0.516,0.784,0.491,0.990,0.706,0.316,0.565,0.529,�k�k��,8.0,��
2024/01/13,13:20,0.517,0.782,0.490,0.991,0.706,0.316,0.566,0.529,�k,6.6,��
2024/01/13,13:30,0.518,0.783,0.491,0.991,0.706,0.316,0.567,0.529,�k,7.1,��
2024/01/13,13:40,0.517,0.784,0.491,0.989,0.707,0.315,0.566,0.528,�k,8.0,��
2024/01/13,13:50,0.518,0.782,0.490,0.991,0.707,0.315,0.566,0.529,�k,8.1,��
2024/01/13,14:00,0.516,0.781,0.491,0.992,0.707,0.317,0.566,0.530,�k�k��,9.4,��
2024/01/13,14:10,0.518,0.783,0.490,0.991,0.706,0.316,0.566,0.530,�k�k��,8.9,��
2024/01/13,14:20,0.517,0.782,0.487,0.991,0.705,0.317,0.565,0.529,�k�k��,9.8,��
2024/01/13,14:30,0.517,0.782,0.490,0.991,0.705,0.317,0.564,0.528,�k�k��,9.9,��
2024/01/13,14:40,0.516,0.780,0.489,0.989,0.706,0.317,0.566,0.529,�k,7.8,��
2024/01/13,14:50,0.517,0.781,0.490,0.990,0.705,0.317,0.565,0.530,�k�k��,8.0,��
2024/01/13,15:00,0.516,0.783,0.488,0.991,0.705,0.315,0.566,0.527,�k,8.3,��
2024/01/13,15:10,0.518,0.784,0.489,0.991,0.706,0.316,0.566,0.529,�k�k��,8.2,��
2024/01/13,15:20,0.517,0.782,0.490,0.992,0.707,0.316,0.564,0.530,�k,8.3,��
2024/01/13,15:30,0.516,0.784,0.489,0.989,0.705,0.316,0.565,0.527,�k,9.1,��
2024/01/13,15:40,0.518,0.783,0.491,0.991,0.705,0.315,0.566,0.529,�k�k��,7.6,��
2024/01/13,15:50,0.516,0.784,0.488,0.992,0.706,0.316,0.566,0.529,�k�k��,7.7,��
2024/01/13,16:00,0.518,0.784,0.490,0.992,0.707,0.315,0.564,0.528,�k�k��,7.2,��
2024/01/13,16:10,0.515,0.783,0.489,0.994,0.704,0.316,0.564,0.528,�k�k��,8.0,��
2024/01/13,16:20,0.517,0.782,0.490,0.991,0.704,0.313,0.565,0.528,�k�k��,8.2,��
2024/01/13,16:30,0.516,0.784,0.490,0.991,0.707,0.315,0.564,0.527,�k�k��,7.9,��
2024/01/13,16:40,0.517,0.784,0.488,0.992,0.706,0.316,0.565,0.528,�k�k��,9.1,��
2024/01/13,16:50,0.517,0.782,0.489,0.992,0.705,0.315,0.565,0.527,�k�k��,7.7,��
2024/01/13,17:00,0.515,0.785,0.490,0.988,0.706,0.314,0.565,0.527,�k�k��,7.7,��
2024/01/13,17:10,0.517,0.783,0.490,0.992,0.705,0.315,0.564,0.527,�k�k��,6.9,��
2024/01/13,17:20,0.517,0.784,0.490,0.991,0.706,0.315,0.564,0.528,�k�k��,8.1,��
2024/01/13,17:30,0.518,0.785,0.489,0.991,0.704,0.315,0.563,0.528,�k�k��,7.6,��
2024/01/13,17:40,0.517,0.783,0.489,0.992,0.704,0.315,0.563,0.525,�k�k��,7.8,��
2024/01/13,17:50,0.517,0.785,0.489,0.991,0.704,0.316,0.566,0.528,�k�k��,9.0,��
2024/01/13,18:00,0.517,0.783,0.488,0.993,0.704,0.316,0.565,0.528,�k�k��,7.6,��
2024/01/13,18:10,0.517,0.783,0.489,0.991,0.706,0.317,0.564,0.528,�k�k��,8.4,��
2024/01/13,18:20,0.515,0.784,0.490,0.990,0.704,0.315,0.562,0.527,�k�k��,7.4,��
2024/01/13,18:30,0.517,0.783,0.488,0.990,0.706,0.314,0.564,0.527,�k�k��,6.8,��
2024/01/13,18:40,0.516,0.784,0.487,0.989,0.706,0.313,0.565,0.527,�k�k��,6.5,��
2024/01/13,18:50,0.518,0.783,0.488,0.991,0.705,0.313,0.563,0.528,�k�k��,6.7,��
2024/01/13,19:00,0.516,0.785,0.489,0.988,0.704,0.314,0.563,0.527,�k�k��,5.6,��
2024/01/13,19:10,0.518,0.784,0.489,0.994,0.706,0.315,0.564,0.528,�k��,6.9,��
2024/01/13,19:20,0.516,0.782,0.489,0.994,0.705,0.315,0.564,0.527,�k��,9.1,��
2024/01/13,19:30,0.516,0.784,0.488,0.993,0.705,0.315,0.564,0.527,�k��,9.0,��
2024/01/13,19:40,0.516,0.783,0.489,0.993,0.705,0.315,0.563,0.526,�k��,8.9,��
2024/01/13,19:50,0.516,0.782,0.487,0.991,0.705,0.315,0.564,0.527,�k�k��,8.8,��
2024/01/13,20:00,0.516,0.783,0.488,0.989,0.706,0.315,0.563,0.527,�k��,8.9,��
2024/01/13,20:10,0.516,0.782,0.488,0.991,0.704,0.314,0.565,0.528,�k�k��,7.3,��
2024/01/13,20:20,0.517,0.784,0.487,0.990,0.704,0.313,0.563,0.528,�k��,6.7,��
2024/01/13,20:30,0.516,0.783,0.486,0.989,0.705,0.314,0.564,0.526,�k��,7.6,��
2024/01/13,20:40,0.517,0.783,0.488,0.991,0.705,0.314,0.563,0.527,�k��,7.2,��
2024/01/13,20:50,0.516,0.783,0.487,0.991,0.706,0.315,0.562,0.528,�k��,7.7,��
2024/01/13,21:00,0.516,0.782,0.487,0.990,0.705,0.316,0.563,0.527,�k�k��,6.0,��
2024/01/13,21:10,0.516,0.784,0.487,0.992,0.705,0.316,0.563,0.528,�k��,6.3,��
2024/01/13,21:20,0.516,0.782,0.489,0.990,0.704,0.315,0.564,0.528,�k��,7.2,��
2024/01/13,21:30,0.516,0.785,0.488,0.991,0.705,0.315,0.564,0.527,�k��,10.7,��
2024/01/13,21:40,0.516,0.783,0.490,0.993,0.704,0.313,0.564,0.528,�k��,10.5,��
2024/01/13,21:50,0.518,0.785,0.488,0.991,0.705,0.315,0.564,0.529,�k��,8.3,��
2024/01/13,22:00,0.516,0.782,0.488,0.988,0.703,0.314,0.564,0.528,�k��,7.5,��
2024/01/13,22:10,0.516,0.783,0.488,0.989,0.703,0.314,0.564,0.526,�k�k��,7.4,��
2024/01/13,22:20,0.516,0.783,0.487,0.990,0.701,0.315,0.565,0.528,�k�k��,7.3,��
2024/01/13,22:30,0.515,0.781,0.487,0.991,0.701,0.314,0.563,0.528,�k�k��,5.4,��
2024/01/13,22:40,0.515,0.782,0.488,0.989,0.703,0.314,0.563,0.528,�k�k��,6.3,��
2024/01/13,22:50,0.516,0.783,0.490,0.991,0.703,0.315,0.563,0.528,�k�k��,7.5,��
2024/01/13,23:00,0.516,0.783,0.488,0.990,0.704,0.313,0.565,0.527,�k��,6.8,��
2024/01/13,23:10,0.515,0.784,0.490,0.991,0.704,0.315,0.563,0.528,�k��,5.1,��
2024/01/13,23:20,0.516,0.783,0.489,0.992,0.705,0.314,0.564,0.528,�k��,7.9,��
2024/01/13,23:30,0.518,0.782,0.488,0.991,0.704,0.314,0.563,0.527,�k��,8.4,��
2024/01/13,23:40,0.517,0.784,0.489,0.989,0.704,0.313,0.563,0.527,�k��,8.2,��
2024/01/13,23:50,0.517,0.783,0.487,0.991,0.703,0.315,0.563,0.527,�k��,6.4,��
